Location: Basardilla
(41.0274°N, 4.0260°W)
Time: 10:31:30
(UTC+00:00)

Daily predictions for brighter satellites

Satellite Brightness Start Highest point End
(mag) Time Altitude Azimuth Time Altitude Azimuth Time Altitude Azimuth
Cosmos 1805 Rocket 3.9 19:54:15 10° N 19:58:37 50° E 20:02:56 10° SSE
Cosmos 1656 4.4 19:55:32 10° SSE 20:00:27 32° ESE 20:05:20 10° NE
CSL-04 Rocket 3.7 19:55:18 10° SSE 20:00:35 90° WSW 20:05:58 10° NNW
Genesis I 3.6 19:58:04 10° S 20:01:51 44° ESE 20:05:44 10° NE
BREEZE M DEB (TANK) 4.3 19:59:53 10° NW 20:02:36 28° NNE 20:08:42 10° ENE
Cosmos 2061 Rocket 4.0 19:59:48 10° S 20:05:59 73° E 20:12:10 10° N
Okean-O 3.0 20:02:13 10° S 20:06:37 69° WSW 20:11:03 10° NNW
Cosmos 1666 2.7 20:03:30 10° N 20:07:17 61° E 20:11:01 10° SSE
COBE Rocket 4.1 20:02:40 10° SSE 20:07:44 62° ENE 20:12:43 10° N
Cosmos 1633 Rocket 4.5 20:06:22 10° NNE 20:09:50 22° ENE 20:13:15 10° SE
Cosmos 1500 3.7 20:07:02 10° NNW 20:10:48 64° W 20:14:34 10° S
Cosmos 1151 Rocket 3.7 20:07:03 10° SSE 20:10:57 35° E 20:14:50 10° NNE
COSMOS 2487 2.1 20:08:47 10° NNW 20:11:55 70° ENE 20:15:00 10° SSE
BREEZE-M DEB (TANK) 3.7 20:09:25 10° W 20:12:08 56° NNW 20:19:00 10° ENE
Landsat 7 4.0 20:09:15 10° SSE 20:13:51 56° ENE 20:18:29 10° N
USA 129 2.1 20:12:28 10° S 20:15:01 70° WSW 20:17:11 10° NNW
Cosmos 44 3.9 20:13:50 10° NNW 20:17:54 37° NE 20:21:44 11° ESE
OBJECT-B 3.0 20:16:19 10° SSW 20:18:42 22° W 20:21:06 10° NW
Meteor 1-5 Rocket 4.2 20:14:40 10° N 20:20:04 62° ENE 20:25:18 10° SSE
Cosmos 1315 Rocket 3.8 20:19:28 10° N 20:23:08 31° ENE 20:26:19 12° SE
Cosmos 1697 Rocket 3.8 20:19:06 10° SSE 20:23:29 24° E 20:27:52 10° NE
USA 276 3.7 20:21:47 10° W 20:24:13 23° SW 20:26:39 10° SSE
Cosmos 1814 Rocket 4.2 20:20:54 10° N 20:25:56 54° ENE 20:30:37 12° SE
Sich 1 3.0 20:23:15 10° N 20:27:39 85° ENE 20:32:00 10° S
ATLAS 5 CENTAUR R/B 4.0 20:20:31 10° WSW 20:28:30 16° SW 20:32:42 10° S
SJ-6B 4.0 20:25:30 10° S 20:29:11 41° W 20:32:49 10° NNW
Cosmos 2297 Rocket 2.9 20:24:05 10° N 20:29:24 40° ENE 20:33:58 13° SE
BREEZE-M DEB (TANK) 3.8 20:28:48 10° W 20:32:33 37° NNW 20:34:43 10° NE
IRS-1A Rocket 4.4 20:29:32 10° SSE 20:35:03 64° ENE 20:40:42 10° N
SPOT 1/Viking Rocket 3.7 20:35:51 12° SSE 20:40:30 57° ENE 20:45:34 10° N
Cosmos 1812 4.3 20:38:13 10° SW 20:41:45 36° WNW 20:45:17 10° N
Cosmos 841 Rocket 4.0 20:37:02 10° NNW 20:42:05 57° WSW 20:47:07 10° S
USA 186 4.3 20:40:58 10° WSW 20:42:06 12° W 20:43:13 10° WNW
ATLAS 2AS CENTAUR R/B 4.3 20:40:07 14° SE 20:42:57 17° ESE 20:47:32 10° ENE
Cosmos 2098 Rocket 4.2 20:41:19 10° NNW 20:44:21 29° W 20:47:02 10° SSW
CARTOSAT-1 4.5 20:42:03 17° SE 20:44:47 33° ENE 20:48:40 10° N
NOSS 3-4 (A) 3.4 20:41:38 10° S 20:47:01 48° ESE 20:52:44 10° NE
NOSS 3-4 (C) 3.5 20:41:42 10° S 20:47:06 48° ESE 20:52:49 10° NE
X-37B 2.9 20:47:55 10° WSW 20:49:05 12° SW 20:50:14 10° SSW
Tsikada Rocket 4.4 20:46:29 10° NNW 20:52:46 67° W 20:58:54 10° S
Aureole 1 Rocket 3.7 20:52:59 22° ESE 20:53:10 22° ESE 20:55:41 10° NE
MOS 1 4.4 20:50:08 10° S 20:55:46 78° WSW 21:01:28 10° NNW
IRAS Rocket 4.3 20:50:34 10° NNE 20:56:13 89° WNW 21:01:51 10° SSW
NOSS 3-2 (A) 4.3 20:48:57 10° NW 20:56:41 73° WSW 21:04:04 16° SSE
Meteor 2-6 Rocket 4.3 20:51:58 10° SSW 20:57:20 76° W 21:02:48 10° N
MetOp-B 4.2 20:56:18 18° SSE 21:00:18 66° ENE 21:05:37 10° N
Cosmos 2219 3.8 20:55:10 10° N 21:00:32 43° ENE 21:03:55 21° ESE
Cosmos 2208 Rocket 4.1 20:55:25 10° NNW 21:00:52 68° ENE 21:04:26 22° SSE
Meteor 2-19 Rocket 4.5 20:54:51 10° N 21:01:01 67° E 21:05:41 18° SSE
ASTRO E2 4.3 20:59:41 10° SW 21:02:06 18° S 21:02:06 18° S
CZ-4B R/B 2.6 21:01:20 10° N 21:04:24 41° WNW 21:07:23 10° SW
SPOT 5 3.9 21:03:09 21° ESE 21:06:02 36° ENE 21:10:48 10° N
H-2A R/B 3.7 21:02:29 10° N 21:06:10 33° WNW 21:09:51 10° SW
ARGOS Delta rocket 4.3 21:02:14 10° N 21:07:43 77° WNW 21:13:09 10° SSW
Cosmos 1184 Rocket 3.9 21:09:25 25° E 21:09:25 25° E 21:11:41 10° NE
Cosmos 1536 3.3 21:05:24 10° N 21:09:14 42° ENE 21:10:43 29° SE
Cosmos 389 Rocket 3.7 21:06:25 10° NNE 21:09:25 26° ENE 21:10:02 25° E
Helios 1A Rocket 3.5 21:08:57 27° ESE 21:10:33 40° ENE 21:14:19 10° N
OAO 3 Rocket 3.8 21:06:43 10° WSW 21:11:17 38° S 21:13:12 27° SE
Milstar 3 Cent rocket 4.4 20:57:38 10° W 21:11:51 34° SSW 21:17:21 19° SSE
Cosmos 1328 Rocket 3.7 21:08:00 10° SSW 21:12:17 73° W 21:16:37 10° N
NOSS 3-2 (C) 4.1 21:04:32 10° NW 21:12:17 87° ENE 21:18:24 22° SE
Gbstr 26 Del rocket 4.1 21:05:20 10° NW 21:12:39 77° SW 21:16:23 25° SE
Cosmos 968 Rocket 3.9 21:09:29 10° SSW 21:14:37 65° WNW 21:19:44 10° NNE
Cosmos 1515 3.7 21:13:27 29° SSE 21:15:09 60° E 21:18:54 10° NNE
ERS-1 Rocket 3.7 21:13:55 24° ESE 21:16:12 37° ENE 21:20:49 10° N
Cosmos 405 2.7 21:14:39 10° N 21:18:04 79° E 21:19:10 40° SSE
ISS -0.7 21:21:40 10° NNW 21:23:26 13° N 21:25:10 10° NNE
Cosmos 1743 2.8 21:20:59 10° N 21:24:43 54° E 21:25:38 42° SE
Cosmos 2344 3.5 21:18:49 10° SSW 21:26:25 62° ESE 21:33:45 10° NE
Cosmos 2263 Rocket 4.0 21:22:27 10° N 21:26:25 19° NE 21:29:18 14° E
Ariane Rocket 3.7 21:27:03 17° S 21:30:48 50° W 21:35:45 10° NNW
Terra 2.5 21:29:55 30° ESE 21:31:28 39° ENE 21:35:53 10° N
SL-4 R/B 3.4 21:27:19 10° NW 21:31:29 35° NNE 21:33:59 19° ENE
Resurs 01 Rocket 3.1 21:28:08 12° SSW 21:31:43 33° W 21:35:43 10° NNW
USA 238 DEB 4.0 21:25:16 10° NW 21:32:38 74° WSW 21:37:15 27° SSE
USA 238 4.0 21:25:23 10° NW 21:32:45 74° WSW 21:37:21 27° SSE
Cosmos 1933 Rocket 3.7 21:28:24 10° N 21:32:50 62° E 21:34:14 40° SE
SPOT 3 Rocket 3.6 21:30:26 27° S 21:33:21 79° WSW 21:38:31 10° NNW
Cosmos 2227 Rocket 2.1 21:30:09 10° NNW 21:35:51 90° WSW 21:38:32 33° SSE
CENTAUR R/B 3.8 21:28:11 10° NW 21:36:18 51° WSW 21:42:39 20° S
Cosmos 1340 2.6 21:38:01 39° SSW 21:39:19 82° W 21:43:04 10° N
Cosmos 2369 3.6 21:40:08 25° S 21:43:22 64° ESE 21:48:58 10° NNE
Cosmos 1980 Rocket 2.2 21:43:23 32° S 21:45:49 57° ESE 21:51:22 10° NNE
Cosmos 1354 Rocket 4.0 21:51:12 41° SSE 21:52:49 61° ESE 21:58:03 10° NNE
Cosmos 1470 Rocket 4.4 21:49:54 10° NNW 21:54:01 43° W 21:55:52 27° SW
Cosmos 1464 Rocket 4.2 21:49:04 16° SSW 21:54:04 68° W 22:00:15 10° N
CZ-2C R/B 3.7 21:49:47 10° NNE 21:54:34 88° ESE 21:56:25 38° SSW
SJ 16-02 1.6 21:56:08 48° E 21:56:08 48° E 22:00:14 10° NNE
Cosmos 2228 Rocket 3.3 21:55:45 50° ESE 21:56:13 53° E 22:00:41 10° NNE
Meteor 1-27 Rocket 4.5 21:54:38 12° SSW 21:59:47 52° WNW 22:05:30 10° N
Cosmos 1777 Rocket 4.3 22:01:35 44° ESE 22:01:53 44° ESE 22:06:50 10° NNE
Spot 2 Rocket 3.7 22:03:06 39° SSW 22:04:52 63° WSW 22:09:52 10° NNW
Cosmos 1697 Rocket 3.6 22:01:36 10° SW 22:07:04 49° WNW 22:12:34 10° NNE
SAR-Lupe-4 4.4 22:04:32 10° NNE 22:07:08 40° NE 22:07:08 40° NE
USA 215 3.1 22:04:49 10° NE 22:11:22 67° SE 22:17:53 10° SW
EXPRESS MD2 3.3 22:08:10 10° NW 22:12:19 61° N 22:12:19 61° N
Cosmos 2297 Rocket 3.6 22:08:27 10° NW 22:13:13 29° WSW 22:15:48 20° SW
Cosmos 1092 Rocket 4.0 22:07:34 10° N 22:13:45 66° E 22:15:26 47° SE
ARIANE 5 R/B 2.5 22:13:52 71° SSE 22:14:23 88° ENE 22:18:54 10° NNW
Cosmos 773 Rocket 4.1 22:10:54 10° NNW 22:16:05 59° ENE 22:16:57 52° ESE
Cosmos 1634 Rocket 4.1 22:14:36 46° SE 22:16:08 59° E 22:22:13 10° NNE
Timation 2 Rocket 4.1 22:09:43 10° NNW 22:16:18 75° ENE 22:18:32 45° SE
CSL-04 DEB 4.3 22:15:26 10° NNE 22:19:15 83° NNE 22:19:15 83° NNE
Meteor 2-9 Rocket 4.2 22:13:58 10° N 22:19:48 84° W 22:21:19 51° S
Nadezhda 4 Rocket 4.2 22:13:56 10° NNW 22:20:05 64° W 22:22:37 36° SSW
Cosmos 1869 Rocket 3.5 22:17:23 10° N 22:21:53 83° W 22:22:12 75° SSW
SL-16 R/B 3.2 22:27:38 30° E 22:27:38 30° E 22:31:46 10° NE
ATLAS 2AS CENTAUR R/B 2.9 22:27:21 21° SSW 22:32:56 83° ESE 22:40:35 10° NE
Cosmos 1378 3.8 22:34:16 52° N 22:34:16 52° N 22:37:09 10° N
Cosmos 1346 Rocket 3.6 22:35:43 43° NE 22:35:43 43° NE 22:38:39 10° NNE
RESURS DK-1 2.8 22:36:47 55° NNE 22:36:47 55° NNE 22:40:04 10° NNE
Cosmos 921 Rocket 3.6 22:35:47 10° NNW 22:40:09 50° WSW 22:40:13 50° WSW
SPOT 5 4.5 22:42:22 24° SW 22:44:03 29° W 22:48:38 10° NW
Cosmos 2278 3.7 22:42:30 49° SW 22:44:07 78° WNW 22:49:49 10° NNE
USA 267 4.2 22:40:37 16° E 22:45:20 41° NNE 22:51:22 10° NW
Cosmos 1707 Rocket 3.6 22:46:01 76° NNW 22:46:01 76° NNW 22:50:10 10° N
Cosmos 2026 Rocket 3.9 22:39:37 10° N 22:45:47 82° W 22:47:06 58° S
Cosmos 2082 4.3 22:49:41 10° NW 22:54:59 43° WSW 22:55:38 42° SW
Geosat 4.4 22:57:36 50° WSW 22:57:40 50° WSW 23:02:33 10° NW
Cosmos 2360 Rocket 3.6 23:00:22 24° E 23:00:22 24° E 23:03:39 10° NE
ISS -1.3 22:58:29 10° NNW 23:00:55 21° NNE 23:00:55 21° NNE
Cosmos 158 Rocket 3.8 22:59:08 10° NNW 23:04:12 87° NW 23:04:12 87° NW
Meteor 2-15 Rocket 4.3 23:05:19 69° S 23:06:08 89° WNW 23:12:14 10° N
Terra 3.6 23:08:48 21° WSW 23:09:20 21° W 23:12:59 10° NW
Cosmos 2263 Rocket 2.2 23:05:20 10° NNW 23:10:52 67° WSW 23:10:59 67° WSW
SL-4 R/B 3.6 23:06:57 10° WNW 23:09:26 31° WNW 23:09:26 31° WNW
Spot 4 4.1 23:11:37 60° NE 23:11:37 60° NE 23:16:02 10° N
Cosmos 1066 Rocket 4.2 23:12:30 73° ESE 23:12:39 74° E 23:18:23 10° NNE
ATLAS 3B R/B 3.4 23:06:14 10° NNW 23:13:27 54° NE 23:16:23 36° ESE
Cosmos 1975 4.3 23:09:53 10° NNW 23:12:54 33° WNW 23:12:54 33° WNW
ALOS 2 3.7 23:15:18 36° NE 23:15:18 36° NE 23:18:44 10° N
Cosmos 2266 Rocket 4.2 23:13:53 10° N 23:20:03 55° E 23:20:37 53° E
Cosmos 1733 Rocket 3.8 23:17:11 10° NNW 23:20:49 48° WNW 23:20:49 48° WNW
Cosmos 2279 Rocket 4.2 23:24:20 54° SW 23:25:26 63° W 23:31:36 10° N
Cosmos 2333 Rocket 3.8 23:26:56 22° E 23:26:56 22° E 23:30:05 10° NE
Cosmos 1862 Rocket 4.5 23:28:10 44° WNW 23:28:10 44° WNW 23:32:01 10° N
Cosmos 1908 Rocket 4.5 23:23:54 10° N 23:27:06 43° NNE 23:27:06 43° NNE
Cosmos 1980 Rocket 4.3 23:25:52 10° WSW 23:30:12 22° NW 23:34:36 10° N
Cosmos 1898 Rocket 4.0 23:35:22 50° ENE 23:35:22 50° ENE 23:39:42 10° NNE
ERS-2 4.1 23:31:05 10° NNE 23:32:44 25° NNE 23:32:44 25° NNE
Cosmos 2322 Rocket 2.1 23:34:57 81° ENE 23:34:57 81° ENE 23:40:21 10° NNE
SJ 16-02 3.8 23:33:02 13° W 23:34:52 16° WNW 23:37:35 10° NNW
Cosmos 990 Rocket 4.1 23:37:50 74° NNE 23:37:50 74° NNE 23:42:38 10° NNE
Meteor 2-10 4.1 23:32:25 10° N 23:37:21 73° NNE 23:37:21 73° NNE
Meteor 1-15 Rocket 4.3 23:40:27 10° N 23:46:02 69° ENE 23:46:02 69° ENE
Gblst 52 Del rocket 4.4 23:49:00 62° E 23:49:00 62° E 23:53:52 10° ENE
Meteor 1-12 Rocket 4.2 23:46:00 10° N 23:51:59 83° W 23:52:02 83° WSW
Cosmos 1844 Rocket 3.0 23:47:17 10° NNW 23:52:48 56° ENE 23:53:02 55° ENE
Cosmos 1726 4.1 23:52:04 10° N 23:53:54 28° N 23:53:54 28° N
